星链-5360 (STARLINK-5360 )

导读

STARLINK-5360是美国太空探索技术公司(SpaceX)星链互联网卫星星座中的一员,于2022年12月28日发射入轨,归属美国。它作为星链项目的组成部分,旨在为全球提供高速低延迟的宽带互联网服务,尤其服务偏远地区、移动载体等网络覆盖薄弱场景,进一步扩充了星链星座的服务能力与覆盖范围。

Basic Information
目录编号:
54846
目录名称:
STARLINK-5360
国际标识:
2022-177AC
轨道中心:
EARTH
卫星名称:
星链-5360
卫星全名:
星链-5360 (STARLINK-5360 )
卫星状态:
在轨 (已飞行1265 天)
发射日期:
2022-12-28 UTC
国别 :
美国 (US)
星等 :
--
Orbit Information
数据来源 国际轨道数据 AOE轨道数据
星历时间 2026-06-14T23:48:25+0800
13小时前
查看轨道信息
2026-06-15T07:00:00+0800
6小时前
查看轨道信息
半长轴 6861.202km 6861.174km
偏心率 0.0001592 0.0001854
轨道倾角 43.005° 43.003°
近地点辐角 264.886° 261.432°
升交点赤经 305.005° 303.317°
平近点角 95.181° 308.768°
近地点 481.972km 481.764km
远地点 484.158km 484.31km
周期 94.267分钟 94.266分钟
每日圈数 15.275748 15.275843
Detailed Information
固有亮度:
5
最大亮度:
2.5
卫星平台:
Starlink v1.5
覆盖范围:
全球
运营商:
太空探索技术公司
运营商所在国:
美国
制造商(研发单位):
太空探索技术公司
制造商所在国:
美国
使用方式:
暂无
Satellite Introduction
星链(Starlink)计划是由太空探索技术公司(SpaceX)提出的一个巨型低轨卫星互联网星座项目,计划在2019年至2024年间在太空搭建由约1.2万颗卫星组成的“星链”网络,其中1584颗将部署在地球上空550千米处的近地轨道,并从2020年开始工作。该卫星仍在工作。
2D Orbit Map
3D Orbit Map
Orbit Altitude Analysis Chart
Orbit Inclination Analysis Chart
Orbit Comprehensive Analysis Chart
View Comprehensive Chart